Retour au catalogue

COSMOS 2251 DEB

ActifLEO
NORAD 33907·DEBRIS·🇷🇺 Russia

Lancé Jun 16, 1993 depuis Plesetsk Cosmodrome

Loading…

Prochains Passages (prochaines 24 heures)

TLE

FraisSource: Space-Track

Époque: Sep 14, 2026, 00:45 UTC

1 33907U 93036DL  26257.03134714  .00002482  00000-0  84233-3 0  9997
2 33907  74.0666 252.2538 0118340 241.9053 182.8153 14.33315536905210

Suivez COSMOS 2251 DEB en temps réel avec AllMySat

Download on the App Store